| time (UTC) | temp C | wind direction | speed KPH | gust KPH | rain 1hr cm | rain 24hr cm | rain mn cm | humidity % | barometer mb |
| 20260510011520 | 13 | 175 | 0.0 | 3.2 | 0.00 | 0.36 | 0.36 | 85 | 1009.9 |
| 20260510010028 | 14 | 193 | 0.0 | 3.2 | 0.00 | 0.36 | 0.36 | 84 | 1009.8 |
| 20260510004537 | 15 | 148 | 0.0 | 3.2 | 0.00 | 0.36 | 0.36 | 82 | 1009.7 |
| 20260510003054 | 15 | 111 | 0.0 | 1.6 | 0.00 | 0.36 | 0.36 | 79 | 1009.3 |
| 20260510001557 | 16 | 186 | 0.0 | 3.2 | 0.00 | 0.36 | 0.36 | 76 | 1009.0 |
| 20260510000103 | 17 | 202 | 0.0 | 4.8 | 0.00 | 0.36 | 0.36 | 73 | 1008.8 |
| 20260509234512 | 18 | 202 | 0.0 | 4.8 | 0.00 | 0.36 | 0.36 | 68 | 1008.6 |
| 20260509233020 | 18 | 173 | 0.0 | 3.2 | 0.00 | 0.36 | 0.36 | 66 | 1008.6 |
| 20260509231533 | 18 | 198 | 0.0 | 4.8 | 0.00 | 0.36 | 0.36 | 66 | 1008.6 |
| 20260509230042 | 18 | 166 | 1.6 | 8.0 | 0.00 | 0.36 | 0.36 | 65 | 1008.6 |
| 20260509224551 | 18 | 161 | 1.6 | 8.0 | 0.00 | 0.36 | 0.36 | 64 | 1008.8 |
| 20260509223102 | 18 | 191 | 1.6 | 14.5 | 0.00 | 0.36 | 0.36 | 64 | 1009.1 |
| 20260509221505 | 18 | 281 | 0.0 | 9.7 | 0.00 | 0.36 | 0.36 | 64 | 1009.1 |
| 20260509220014 | 18 | 175 | 3.2 | 11.3 | 0.00 | 0.36 | 0.36 | 63 | 1009.0 |
| 20260509214520 | 18 | 185 | 0.0 | 6.4 | 0.00 | 0.36 | 0.36 | 65 | 1009.1 |
| 20260509213031 | 19 | 195 | 3.2 | 12.9 | 0.00 | 0.36 | 0.36 | 65 | 1009.2 |
| 20260509211536 | 18 | 336 | 0.0 | 8.0 | 0.00 | 0.36 | 0.36 | 67 | 1009.2 |
| 20260509210042 | 18 | 242 | 1.6 | 6.4 | 0.00 | 0.36 | 0.36 | 68 | 1009.2 |
| 20260509204552 | 18 | 197 | 1.6 | 8.0 | 0.00 | 0.36 | 0.36 | 69 | 1009.2 |
| 20260509203106 | 18 | 126 | 1.6 | 8.0 | 0.00 | 0.36 | 0.36 | 67 | 1009.5 |
| 20260509201512 | 19 | 27 | 3.2 | 6.4 | 0.00 | 0.36 | 0.36 | 70 | 1009.5 |
| 20260509200028 | 18 | 20 | 0.0 | 8.0 | 0.00 | 0.36 | 0.36 | 70 | 1009.8 |
| 20260509194535 | 18 | 310 | 1.6 | 4.8 | 0.00 | 0.36 | 0.36 | 70 | 1010.1 |
| 20260509193102 | 18 | 173 | 0.0 | 6.4 | 0.00 | 0.36 | 0.36 | 70 | 1010.0 |
| 20260509191556 | 18 | 112 | 1.6 | 4.8 | 0.00 | 0.36 | 0.36 | 71 | 1010.1 |
| 20260509190059 | 18 | 162 | 1.6 | 4.8 | 0.00 | 0.36 | 0.36 | 71 | 1010.0 |
| 20260509184608 | 17 | 182 | 0.0 | 8.0 | 0.00 | 0.36 | 0.36 | 78 | 1010.0 |
| 20260509183008 | 16 | 128 | 0.0 | 3.2 | 0.00 | 0.36 | 0.36 | 81 | 1010.2 |
| 20260509181515 | 15 | 248 | 0.0 | 1.6 | 0.00 | 0.36 | 0.36 | 80 | 1010.1 |
| 20260509180017 | 15 | 186 | 0.0 | 3.2 | 0.00 | 0.36 | 0.36 | 80 | 1009.9 |
| 20260509174520 | 15 | 209 | 1.6 | 6.4 | 0.00 | 0.36 | 0.36 | 82 | 1010.0 |
| 20260509173027 | 14 | 57 | 1.6 | 4.8 | 0.00 | 0.36 | 0.36 | 88 | 1010.2 |
| 20260509171542 | 13 | 186 | 1.6 | 6.4 | 0.00 | 0.36 | 0.36 | 90 | 1010.2 |
| 20260509170044 | 13 | 225 | 0.0 | 3.2 | 0.00 | 0.36 | 0.36 | 90 | 1010.3 |
| 20260509164555 | 13 | 236 | 0.0 | 6.4 | 0.00 | 0.36 | 0.36 | 91 | 1010.2 |
| 20260509163008 | 13 | 163 | 1.6 | 6.4 | 0.00 | 0.36 | 0.36 | 91 | 1010.2 |
| 20260509161511 | 13 | 11 | 3.2 | 6.4 | 0.00 | 0.36 | 0.36 | 91 | 1010.2 |
| 20260509160019 | 12 | 155 | 0.0 | 4.8 | 0.03 | 0.36 | 0.36 | 89 | 1010.4 |
| 20260509154521 | 13 | 198 | 1.6 | 8.0 | 0.03 | 0.36 | 0.36 | 90 | 1010.8 |
| 20260509153034 | 12 | 101 | 0.0 | 4.8 | 0.03 | 0.36 | 0.36 | 93 | 1010.7 |
| 20260509151539 | 12 | 126 | 0.0 | 3.2 | 0.03 | 0.36 | 0.36 | 91 | 1011.0 |
| 20260509150104 | 12 | 161 | 0.0 | 1.6 | 0.00 | 0.33 | 0.33 | 93 | 1011.0 |
| 20260509144510 | 12 | 76 | 0.0 | 1.6 | 0.03 | 0.33 | 0.33 | 92 | 1011.1 |
| 20260509143017 | 12 | 168 | 0.0 | 3.2 | 0.03 | 0.33 | 0.33 | 92 | 1011.1 |
| 20260509141527 | 12 | 185 | 0.0 | 3.2 | 0.03 | 0.33 | 0.33 | 93 | 1011.0 |
| 20260509140029 | 11 | 207 | 0.0 | 1.6 | 0.03 | 0.33 | 0.33 | 92 | 1011.2 |
| 20260509134543 | 11 | 227 | 0.0 | 3.2 | 0.03 | 0.30 | 0.30 | 92 | 1011.2 |
| 20260509133051 | 11 | 201 | 0.0 | 3.2 | 0.05 | 0.30 | 0.30 | 93 | 1011.2 |
| 20260509131558 | 11 | 5 | 0.0 | 1.6 | 0.08 | 0.30 | 0.30 | 95 | 1011.1 |
| 20260509130004 | 11 | 341 | 0.0 | 3.2 | 0.08 | 0.30 | 0.30 | 94 | 1011.3 |
| 20260509124514 | 11 | 213 | 0.0 | 1.6 | 0.08 | 0.28 | 0.28 | 94 | 1011.4 |
| 20260509123021 | 11 | 128 | 0.0 | 3.2 | 0.05 | 0.25 | 0.25 | 93 | 1011.5 |
| 20260509121535 | 11 | 187 | 0.0 | 3.2 | 0.05 | 0.23 | 0.23 | 93 | 1011.7 |
| 20260509120047 | 11 | 270 | 0.0 | 9.7 | 0.05 | 0.23 | 0.23 | 93 | 1011.6 |
| 20260509114603 | 10 | 173 | 1.6 | 4.8 | 0.05 | 0.20 | 0.20 | 95 | 1011.7 |
| 20260509113003 | 10 | 157 | 0.0 | 3.2 | 0.08 | 0.20 | 0.20 | 95 | 1011.5 |
| 20260509111511 | 10 | 94 | 0.0 | 1.6 | 0.05 | 0.18 | 0.18 | 94 | 1011.5 |
| 20260509110013 | 10 | 94 | 0.0 | 0.0 | 0.05 | 0.18 | 0.18 | 94 | 1011.5 |
| 20260509104531 | 10 | 94 | 0.0 | 3.2 | 0.05 | 0.15 | 0.15 | 93 | 1011.3 |
| 20260509103031 | 10 | 201 | 1.6 | 4.8 | 0.05 | 0.13 | 0.13 | 93 | 1011.3 |
| 20260509101541 | 10 | 194 | 0.0 | 4.8 | 0.05 | 0.13 | 0.13 | 92 | 1011.4 |
| 20260509100055 | 10 | 165 | 0.0 | 3.2 | 0.08 | 0.13 | 0.13 | 93 | 1011.6 |
| 20260509094556 | 11 | 178 | 0.0 | 1.6 | 0.08 | 0.10 | 0.10 | 92 | 1011.7 |
| 20260509093101 | 11 | 179 | 0.0 | 1.6 | 0.08 | 0.08 | 0.08 | 90 | 1012.0 |
| 20260509091502 | 11 | 179 | 0.0 | 1.6 | 0.08 | 0.08 | 0.08 | 87 | 1012.2 |
| 20260509090009 | 12 | 184 | 0.0 | 3.2 | 0.05 | 0.05 | 0.05 | 84 | 1012.2 |
| 20260509084530 | 13 | 163 | 0.0 | 3.2 | 0.03 | 0.03 | 0.03 | 75 | 1012.1 |
| 20260509083043 | 14 | 35 | 1.6 | 4.8 | 0.00 | 0.00 | 0.00 | 70 | 1012.2 |
| 20260509081550 | 14 | 36 | 3.2 | 8.0 | 0.00 | 0.00 | 0.00 | 67 | 1011.9 |
| 20260509080050 | 14 | 189 | 0.0 | 8.0 | 0.00 | 0.00 | 0.00 | 64 | 1011.1 |
| 20260509074554 | 13 | 206 | 1.6 | 4.8 | 0.00 | 0.00 | 0.00 | 65 | 1010.6 |
| 20260509073057 | 12 | 32 | 0.0 | 1.6 | 0.00 | 0.00 | 0.00 | 75 | 1010.5 |
| 20260509071508 | 12 | 32 | 0.0 | 4.8 | 0.00 | 0.00 | 0.00 | 76 | 1010.2 |
| 20260509070012 | 12 | 319 | 0.0 | 1.6 | 0.00 | 0.00 | 0.00 | 77 | 1010.1 |
| 20260509064523 | 12 | 329 | 0.0 | 1.6 | 0.00 | 0.00 | 0.00 | 74 | 1010.2 |
| 20260509063028 | 12 | 195 | 1.6 | 8.0 | 0.00 | 0.00 | 0.00 | 73 | 1010.3 |
| 20260509061545 | 12 | 252 | 0.0 | 3.2 | 0.00 | 0.00 | 0.00 | 75 | 1010.4 |
| 20260509060039 | 11 | 24 | 0.0 | 1.6 | 0.00 | 0.00 | 0.00 | 82 | 1010.7 |
| 20260509054602 | 11 | 24 | 0.0 | 1.6 | 0.00 | 0.00 | 0.00 | 82 | 1010.8 |
| 20260509053059 | 11 | 24 | 0.0 | 1.6 | 0.00 | 0.00 | 0.00 | 82 | 1011.0 |
| 20260509051559 | 12 | 24 | 0.0 | 3.2 | 0.00 | 0.00 | 0.00 | 82 | 1011.3 |
| 20260509050003 | 12 | 355 | 0.0 | 1.6 | 0.00 | 0.00 | 0.00 | 81 | 1011.6 |
| 20260509044514 | 12 | 355 | 0.0 | 1.6 | 0.00 | 0.00 | 0.00 | 81 | 1011.6 |
| 20260509043015 | 12 | 355 | 0.0 | 1.6 | 0.00 | 0.00 | 0.00 | 81 | 1011.9 |
| 20260509041520 | 12 | 355 | 0.0 | 1.6 | 0.00 | 0.00 | 0.00 | 81 | 1012.0 |
| 20260509040025 | 12 | 355 | 0.0 | 1.6 | 0.00 | 0.00 | 0.00 | 80 | 1012.1 |
| 20260509034534 | 12 | 355 | 0.0 | 1.6 | 0.00 | 0.00 | 0.00 | 79 | 1012.1 |
| 20260509033040 | 12 | 355 | 0.0 | 1.6 | 0.00 | 0.00 | 0.00 | 78 | 1012.0 |
| 20260509031558 | 13 | 355 | 0.0 | 1.6 | 0.00 | 0.00 | 0.00 | 78 | 1012.2 |
| 20260509030053 | 13 | 355 | 0.0 | 1.6 | 0.00 | 0.00 | 0.00 | 78 | 1012.3 |
| 20260509024601 | 13 | 355 | 0.0 | 0.0 | 0.00 | 0.00 | 0.00 | 77 | 1012.4 |
| 20260509023015 | 13 | 355 | 0.0 | 1.6 | 0.00 | 0.00 | 0.00 | 74 | 1012.3 |
| 20260509021519 | 13 | 355 | 0.0 | 0.0 | 0.00 | 0.00 | 0.00 | 73 | 1012.1 |
| 20260509020025 | 13 | 355 | 0.0 | 1.6 | 0.00 | 0.00 | 0.00 | 74 | 1012.1 |
| 20260509014536 | 13 | 355 | 0.0 | 3.2 | 0.00 | 0.00 | 0.00 | 74 | 1012.0 |
| 20260509013106 | 14 | 355 | 0.0 | 0.0 | 0.00 | 0.00 | 0.00 | 73 | 1011.8 |